[[{"header":{"parameterUnit":"m.s-1","parameterCategory":1,"la1":30.2991,"la2":30.254,"lo1":-89.0895,"lo2":-89.0444,"dy":0.0017,"dx":0.0017,"nx":28,"ny":28,"refTime":"2023-08-10T09:00:00:Z","depth":0,"parameterNumber":2,"parameterNumberName":"U-component_of_WINDS"},"data":[0,0,0,0,0,0,0,0,0,0,0,0,0,0,0,0,0,0,0,0,0,0,0,0,0,0,0,0,0,0,0,0,0,0,0,0,0,0,0,0,0,0,0,0,0,0,0,0,0,0,0,0,0,0,0,0,0,0,5.313,5.313,0,5.3171,5.3172,5.3172,5.306,5.3056,5.3053,5.3049,5.3092,5.3097,5.3101,0,0,0,0,0,0,0,0,0,0,0,0,0,5.295,5.2954,5.313,5.313,5.3131,5.3171,5.3172,5.3172,5.306,5.3056,5.3052,5.3048,5.3091,5.3096,5.3101,0,0,0,0,0,0,0,0,0,0,0,0,0,5.3014,5.2956,5.3129,5.308,5.3076,5.3171,5.3172,5.3173,5.3061,5.3056,5.3051,5.3046,5.3089,5.3096,5.3102,5.3248,0,0,5.3122,5.3125,0,0,0,0,0,0,0,0,5.301,5.3021,5.3086,5.3083,5.3079,5.3105,5.3124,5.3198,5.3063,5.3067,5.3049,5.3043,5.3101,5.3106,5.3125,5.325,5.3252,5.3123,5.3127,5.313,5.3132,0,0,0,0,0,0,0,5.3006,5.3018,5.3146,5.3087,5.3083,5.3054,5.3058,5.3138,5.3113,5.3066,5.3058,5.3064,5.3098,5.3119,5.3126,5.3252,5.3123,5.3129,5.3133,5.3135,5.3493,5.3499,0,0,0,0,0,0,5.3008,5.3015,5.3145,5.3147,5.3031,5.3062,5.3065,5.3102,5.3111,5.3108,5.3069,5.3059,5.3111,5.3118,5.3127,5.3294,5.313,5.3136,5.314,5.3488,5.3495,5.3501,0,0,0,0,0,0,5.3005,5.3021,5.3143,5.3079,5.3092,5.3071,5.3112,5.3105,5.3127,5.3114,5.3108,5.3096,5.3107,5.3117,5.3217,5.3294,5.3139,5.3145,5.3481,5.349,5.3498,5.3633,0,0,0,0,0,0,5.3,5.302,5.3076,5.3081,5.3096,5.3234,5.3117,5.311,5.3139,5.3126,5.3137,5.3134,5.3104,5.3208,5.3224,5.33,5.315,5.3474,5.3485,5.3495,5.3621,5.3644,5.3665,0,0,0,0,0,5.2994,5.3114,5.308,5.3096,5.3166,5.3239,5.3247,5.321,5.3145,5.32,5.3191,5.3134,5.3284,5.3219,5.3236,5.3316,5.3469,5.3482,5.3494,5.3611,5.364,5.3664,0,0,0,0,0,0,5.312,5.3114,5.3076,5.3201,5.3221,5.322,5.3288,5.3242,5.3281,5.3268,5.3219,5.3222,5.333,5.3334,5.3262,5.3455,5.3365,5.3382,5.3449,5.3476,5.3497,5.3492,5.3155,0,0,0,0,0,5.3162,5.3222,5.3213,5.3324,5.3336,5.3311,5.3342,5.331,5.3329,5.3337,5.3336,5.3356,5.3407,5.3442,5.3489,5.3622,5.362,5.3685,5.3706,5.3724,5.3738,5.3804,5.3831,5.3542,5.3542,5.3541,0,0,5.3249,5.3254,5.3295,5.3349,5.3361,5.3423,5.3319,5.339,5.3435,5.3348,5.3441,5.3441,5.346,5.3576,5.3628,5.3582,5.3818,5.374,5.3755,5.3758,5.382,5.3847,5.3871,5.355,5.3549,5.3547,0,0,5.3439,5.3451,5.3542,5.3555,5.3574,5.3556,5.3578,5.3584,5.358,5.3672,5.3607,5.366,5.3751,5.3766,5.3785,5.3979,5.3926,5.3996,5.4108,5.4173,5.4195,5.4215,5.428,5.4305,5.401,5.4011,5.4011,0,5.3546,5.3637,5.3595,5.3669,5.3693,5.3617,5.3707,5.3723,5.3757,5.3775,5.3724,5.3833,5.3842,5.3957,5.4004,5.4025,5.4046,5.3993,5.4196,5.4215,5.4233,5.4294,5.4319,5.4018,5.4018,5.4017,5.4016,0,5.3764,5.3828,5.39,5.3932,5.3965,5.4048,5.4016,5.4055,5.402,5.4007,5.4101,5.4108,5.4152,5.4179,5.4147,5.429,5.426,5.4204,5.4112,5.4269,5.4326,5.4349,5.403,5.4027,5.4025,5.4023,0,0,5.4034,5.4041,5.4067,5.4079,5.4093,5.4142,5.422,5.4262,5.4294,5.4321,5.4382,5.4459,5.4406,5.4428,5.4397,5.4455,5.4602,5.4391,5.439,5.4426,5.4755,5.4795,5.4823,5.4569,5.4573,5.4577,5.4752,0,5.4218,5.4351,5.4314,5.4446,5.4502,5.443,5.4497,5.4512,5.4502,5.4548,5.4536,5.459,5.4517,5.453,5.4584,5.4573,5.4667,5.4561,5.4623,5.4626,5.4617,5.4853,5.4896,5.5062,5.4775,5.4778,5.4781,0,5.4451,5.4483,5.462,5.4621,5.4644,5.4705,5.4739,5.4785,5.48,5.4788,5.4812,5.4769,5.4843,5.4753,5.4854,5.4782,5.4805,5.4804,5.481,5.4811,5.4711,5.4857,5.5114,5.5137,5.4816,5.4814,5.4811,0,5.4628,5.4707,5.4797,5.4811,5.4816,5.486,5.4864,5.4874,5.4901,5.4931,5.4948,5.4987,5.5008,5.5039,5.5007,5.4945,5.5111,5.5019,5.51,5.5101,5.5136,5.5134,5.5396,5.5158,5.5158,5.5158,5.5157,0,5.4835,5.4921,5.4876,5.4932,5.5025,5.4982,5.5075,5.5071,5.508,5.5132,5.5074,5.5124,5.508,5.5126,5.5102,5.5186,5.5197,5.5188,5.5179,5.5191,5.5191,5.5203,5.5189,5.5164,5.5163,5.5161,5.516,0,5.5048,5.5023,5.5116,5.5112,5.5113,5.5182,5.5178,5.5228,5.5213,5.528,5.5293,5.527,5.532,5.5292,5.5345,5.5328,5.5436,5.5415,5.5431,5.5423,5.5505,5.5496,5.578,5.5814,5.5559,5.5561,5.5563,0,5.518,5.5244,5.5246,5.5277,5.5284,5.5335,5.5361,5.5321,5.535,5.5371,5.5418,5.5464,5.5497,5.5582,5.5569,5.5608,5.5584,5.5682,5.559,5.5598,5.5581,5.5576,5.558,5.5699,5.5702,5.5704,5.5706,0,5.5416,5.5399,5.5439,5.5474,5.5507,5.5533,5.5555,5.5583,5.5542,5.5579,5.5629,5.5655,5.5708,5.5753,5.5786,5.5789,5.574,5.5736,5.5756,5.5766,5.5771,5.5765,5.5477,5.5729,5.5726,5.5725,5.5724,5.5723,5.5589,5.5641,5.5649,5.5695,5.5706,5.5727,5.5772,5.5762,5.5803,5.5842,5.5816,5.5875,5.5885,5.5924,5.5934,5.5978,5.5939,5.597,5.5976,5.5983,5.5992,5.5767,5.5985,5.5984,5.5984,5.5983,5.5983,0,5.5818,5.5819,5.5862,5.5892,5.5927,5.5879,5.5899,5.5931,5.5983,5.5997,5.6031,5.6088,5.613,5.612,5.6158,5.6196,5.6174,5.6207,5.6201,5.6202,5.6027,5.6004,5.6223,5.6223,5.6223,5.6223,5.6223,5.6223,5.5941,5.6023,5.6007,5.6095,5.6095,5.6151,5.6166,5.6184,5.6194,5.6259,5.6294,5.6287,5.6291,5.6328,5.6364,5.636,5.6375,5.6415,5.6403,5.6239,5.6215,5.6192,5.617,5.642,5.642,5.6573,5.6574,5.6575]},{"header":{"parameterUnit":"m.s-1","parameterCategory":1,"la1":30.2991,"la2":30.254,"lo1":-89.0895,"lo2":-89.0444,"dy":0.0017,"dx":0.0017,"nx":28,"ny":28,"refTime":"2023-08-10T09:00:00:Z","depth":0,"parameterNumber":3,"parameterNumberName":"V-component_of_WINDS"},"data":[0,0,0,0,0,0,0,0,0,0,0,0,0,0,0,0,0,0,0,0,0,0,0,0,0,0,0,0,0,0,0,0,0,0,0,0,0,0,0,0,0,0,0,0,0,0,0,0,0,0,0,0,0,0,0,0,0,0,4.1397,4.1398,0,4.1497,4.1498,4.15,4.1493,4.1491,4.149,4.1488,4.1585,4.1589,4.1593,0,0,0,0,0,0,0,0,0,0,0,0,0,4.1192,4.1196,4.1397,4.1398,4.1399,4.1497,4.1499,4.15,4.1493,4.1491,4.1489,4.1488,4.1584,4.1589,4.1593,0,0,0,0,0,0,0,0,0,0,0,0,0,4.1285,4.1197,4.1397,4.1408,4.141,4.1497,4.1499,4.15,4.1493,4.1491,4.1489,4.1487,4.1582,4.1588,4.1594,4.1675,0,0,4.1612,4.1615,0,0,0,0,0,0,0,0,4.128,4.1293,4.1405,4.1407,4.141,4.148,4.1462,4.1559,4.1494,4.1461,4.1488,4.1486,4.1552,4.156,4.1584,4.1679,4.1684,4.1613,4.1616,4.1619,4.162,0,0,0,0,0,0,0,4.1274,4.1289,4.1436,4.1406,4.1409,4.1405,4.1416,4.148,4.1517,4.1464,4.1464,4.1476,4.1552,4.1578,4.1586,4.1685,4.1613,4.1618,4.1621,4.1624,4.1849,4.1851,0,0,0,0,0,0,4.1266,4.1283,4.1433,4.1439,4.1338,4.1411,4.1423,4.146,4.1517,4.1524,4.1478,4.1475,4.1569,4.1579,4.1589,4.1686,4.1619,4.1624,4.1628,4.1847,4.185,4.1852,0,0,0,0,0,0,4.1261,4.1279,4.1429,4.1361,4.138,4.1417,4.1458,4.1463,4.1488,4.1527,4.1533,4.1497,4.1567,4.1581,4.1653,4.1689,4.1627,4.1632,4.1844,4.1848,4.1851,4.1881,0,0,0,0,0,0,4.1255,4.1278,4.131,4.1362,4.1384,4.1494,4.146,4.1466,4.1499,4.1497,4.1547,4.1553,4.1567,4.1645,4.1659,4.1696,4.1637,4.1841,4.1846,4.185,4.1877,4.1885,4.1892,0,0,0,0,0,4.1248,4.1314,4.1312,4.133,4.1426,4.1496,4.1508,4.1524,4.1502,4.1534,4.1559,4.1552,4.1683,4.1652,4.1669,4.1708,4.1839,4.1844,4.1849,4.1874,4.1884,4.1892,0,0,0,0,0,0,4.1264,4.1321,4.132,4.1405,4.1446,4.1495,4.1536,4.1535,4.1581,4.1577,4.1593,4.1604,4.1676,4.1699,4.1664,4.1788,4.1758,4.1767,4.177,4.178,4.1788,4.178,4.1642,0,0,0,0,0,4.1278,4.1332,4.1378,4.1449,4.147,4.1499,4.153,4.1539,4.1581,4.1598,4.1628,4.1668,4.1718,4.175,4.1798,4.188,4.189,4.1915,4.1923,4.1929,4.1936,4.1979,4.199,4.187,4.187,4.187,0,0,4.1306,4.1344,4.1377,4.1453,4.1486,4.1539,4.1514,4.1572,4.1611,4.1606,4.1677,4.17,4.1745,4.1822,4.1857,4.1843,4.1971,4.1936,4.194,4.1945,4.1986,4.1997,4.2007,4.1874,4.1873,4.1873,0,0,4.1385,4.142,4.1482,4.1515,4.1566,4.1585,4.16,4.1649,4.1664,4.1736,4.1733,4.1778,4.1865,4.1896,4.1924,4.2013,4.2007,4.2028,4.2067,4.2109,4.2118,4.2127,4.2157,4.2167,4.2035,4.2035,4.2035,0,4.1413,4.1496,4.1513,4.1572,4.1604,4.1604,4.1665,4.1696,4.1758,4.178,4.1763,4.1871,4.1901,4.1984,4.2006,4.2029,4.2044,4.2022,4.2116,4.2124,4.2132,4.2161,4.2173,4.2037,4.2037,4.2037,4.2036,0,4.1527,4.1584,4.1628,4.169,4.1727,4.1787,4.1811,4.1846,4.185,4.187,4.1941,4.1978,4.2032,4.2053,4.2058,4.2137,4.2126,4.2113,4.2083,4.2146,4.2173,4.2184,4.204,4.2039,4.2039,4.2038,0,0,4.1619,4.169,4.1705,4.1733,4.1788,4.1831,4.1889,4.1944,4.1973,4.2016,4.2063,4.2136,4.2123,4.2154,4.2162,4.2199,4.2265,4.2181,4.2182,4.2194,4.2351,4.236,4.2373,4.2261,4.2264,4.2265,4.2347,0,4.1703,4.1808,4.1825,4.1916,4.1968,4.1967,4.2017,4.2055,4.2075,4.2119,4.214,4.2191,4.2172,4.219,4.2226,4.2249,4.2296,4.2244,4.2303,4.2305,4.2291,4.2387,4.2397,4.2472,4.2358,4.2359,4.2361,0,4.1814,4.1861,4.1959,4.2005,4.2027,4.2072,4.2123,4.2167,4.2208,4.222,4.2254,4.2257,4.2315,4.2283,4.2361,4.2324,4.2349,4.2364,4.2367,4.2373,4.2336,4.2393,4.2497,4.2507,4.2378,4.2377,4.2375,0,4.187,4.1957,4.2026,4.205,4.2106,4.2137,4.2162,4.2201,4.2233,4.2276,4.2296,4.2346,4.2372,4.2409,4.2424,4.24,4.2501,4.247,4.251,4.2509,4.253,4.2529,4.2638,4.2549,4.2548,4.2548,4.2548,0,4.196,4.2019,4.2052,4.2094,4.2159,4.2176,4.224,4.2263,4.2298,4.2342,4.2344,4.2386,4.2405,4.2448,4.246,4.2522,4.2534,4.2543,4.2546,4.2543,4.2541,4.2559,4.2553,4.2551,4.2551,4.255,4.2549,0,4.2033,4.2058,4.2132,4.218,4.2193,4.2238,4.2277,4.2317,4.2336,4.2393,4.2407,4.2436,4.2487,4.2507,4.2569,4.2577,4.2648,4.2646,4.2634,4.2635,4.2672,4.2668,4.2796,4.2812,4.2713,4.2714,4.2715,0,4.2089,4.2134,4.2186,4.2218,4.2243,4.2293,4.2326,4.2343,4.2376,4.2426,4.2459,4.2511,4.2553,4.2635,4.266,4.2707,4.2706,4.2747,4.2713,4.2708,4.2705,4.2701,4.2705,4.2753,4.2754,4.2755,4.2756,0,4.2184,4.2194,4.2242,4.2293,4.2332,4.2373,4.2412,4.2437,4.246,4.2497,4.255,4.2583,4.2647,4.2697,4.2745,4.2768,4.2765,4.2767,4.2778,4.2775,4.2765,4.2769,4.265,4.2763,4.2763,4.2762,4.2762,4.2761,4.2249,4.2289,4.2332,4.2384,4.2416,4.2453,4.2492,4.2516,4.2562,4.2616,4.2623,4.268,4.2718,4.2782,4.2807,4.285,4.2838,4.2855,4.2859,4.2863,4.2865,4.276,4.2859,4.2858,4.2858,4.2858,4.2858,0,4.2344,4.2371,4.2419,4.2475,4.2515,4.2511,4.2554,4.2588,4.2638,4.2675,4.2717,4.2777,4.2825,4.2854,4.2902,4.2931,4.293,4.2942,4.294,4.2945,4.2873,4.2858,4.2942,4.2942,4.2942,4.2942,4.2942,4.2942,4.2398,4.2464,4.2479,4.256,4.2586,4.2643,4.2668,4.2701,4.273,4.2798,4.2838,4.2858,4.289,4.2941,4.2984,4.2991,4.3008,4.3021,4.3026,4.2959,4.295,4.2942,4.2927,4.3025,4.3025,4.3094,4.3095,4.3095]}]]